This demonstration page uses our WeatherBlox Daily Observations layout. Learn more.

Left ArrowRight Arrow

53.62937, 11.41316

Hourly Observations for February 16, 2020

Temp ( °F °C ) Dew Point ( °F °C ) Humidity (%) Winds ( mph kmh ) Pressure ( in mb ) Visibility ( mi km ) Precip ( " mm )
6:50 am 06:50 Mostly Clear with Drizzle 52 11 43 6 72 72 S 12 19 29.59 1002 30 48 N/A
7:20 am 07:20 Mostly Cloudy with Light Rain 52 11 45 7 77 77 S 12 19 29.59 1002 30 48 N/A
7:50 am 07:50 Mostly Cloudy with Light Rain 52 11 45 7 77 77 SSW 13 20 29.56 1001 30 48 N/A
8:20 am 08:20 Mostly Cloudy with Light Rain 52 11 45 7 77 77 S 15 24 29.56 1001 30 48 N/A
8:50 am 08:50 Mostly Cloudy with Light Rain 52 11 45 7 77 77 SSW 17 28 29.53 1000 30 48 N/A
9:20 am 09:20 Mostly Cloudy with Drizzle 52 11 46 8 82 82 S 15 24 29.53 1000 30 48 N/A
9:50 am 09:50 Mostly Cloudy 52 11 46 8 82 82 SSW 16 26 29.53 1000 30 48 N/A
10:20 am 10:20 Mostly Cloudy with Light Rain 54 12 46 8 77 77 SSW 17 28 29.50 999 30 48 N/A
10:50 am 10:50 Mostly Cloudy 54 12 48 9 82 82 SSW 20 31 29.50 999 30 48 N/A
11:20 am 11:20 Mostly Cloudy 55 13 48 9 77 77 SSW 20 31 29.50 999 30 48 N/A
11:50 am 11:50 Mostly Cloudy 55 13 48 9 77 77 SW 23 37 29.50 999 30 48 N/A
12:20 pm 12:20 Mostly Cloudy with Light Rain 55 13 48 9 77 77 SW 21 33 29.50 999 30 48 N/A
12:50 pm 12:50 Mostly Cloudy 55 13 50 10 82 82 SSW 17 28 29.47 998 30 48 N/A
1:20 pm 13:20 Mostly Cloudy 57 14 48 9 72 72 SW 18 30 29.47 998 30 48 N/A
1:50 pm 13:50 Mostly Cloudy with Light Rain 57 14 48 9 72 72 SW 21 33 29.47 998 30 48 N/A
2:20 pm 14:20 Mostly Cloudy 59 15 48 9 68 68 SW 16 26 29.44 997 30 48 N/A
2:50 pm 14:50 Mostly Cloudy 59 15 46 8 63 63 SW 23 37 29.44 997 30 48 N/A
3:20 pm 15:20 Mostly Cloudy 59 15 46 8 63 63 SW 18 30 29.44 997 30 48 N/A
3:50 pm 15:50 Mostly Cloudy 59 15 48 9 68 68 SSW 17 28 29.41 996 30 48 N/A
4:20 pm 16:20 Mostly Cloudy 59 15 46 8 63 63 SSW 17 28 29.38 995 30 48 N/A
4:50 pm 16:50 Mostly Cloudy 59 15 46 8 63 63 SSW 17 28 29.38 995 30 48 N/A
5:20 pm 17:20 Mostly Cloudy 61 16 46 8 59 59 SW 20 31 29.35 994 30 48 N/A
5:50 pm 17:50 Mostly Cloudy 61 16 46 8 59 59 SSW 23 37 29.35 994 30 48 N/A
6:20 pm 18:20 Mostly Cloudy 61 16 46 8 59 59 SSW 23 37 29.32 993 30 48 N/A
6:50 pm 18:50 Mostly Cloudy 61 16 46 8 59 59 SSW 23 37 29.29 992 30 48 N/A
7:20 pm 19:20 Mostly Cloudy 63 17 46 8 56 56 SW 26 43 29.26 991 30 48 N/A
7:50 pm 19:50 Mostly Cloudy 63 17 46 8 56 56 SSW 24 39 29.26 991 30 48 N/A

Powered by AerisWeather